Regional Weather Roundup
Issued by NWS Green Bay, WI

Home | Current Version | Previous Version | Graphics & Text | Print | Product List | Glossary Off
Versions: 1 2 3 4 5 6 7 8 9 10 11 12 13 14 15 16 17 18 19 20 21 22 23 24 25 26 27 28 29 30 31 32 33 34 35 36 37 38 39 40 41 42 43 44 45 46 47 48 49 50

000
ASUS43 KGRB 270410
RWRGRB

NORTH-CENTRAL AND NORTHEAST WISCONSIN REGIONAL WEATHER ROUNDUP
NATIONAL WEATHER SERVICE GREEN BAY WI
1000 PM CST THU FEB 26 2015

WIZ005-009-010>012-018-019-270500-
NORTH CENTRAL WISCONSIN

CITY           SKY/WX    TMP DP  RH WIND       PRES   REMARKS
IRONWOOD       CLEAR      0  -9  65 SW9       30.31S WCI -16
MANITOWISH WTR CLEAR    -13 -19  76 W5        30.30R WCI -26
ARBOR VITAE    CLEAR     -6 -13  70 CALM      30.30R
EAGLE RIVER    CLEAR    -13 -19  74 CALM      30.29R
LAND O LAKES   CLEAR    -19 -24  75 CALM      30.29R
RHINELANDER    CLEAR     -9 -16  71 W5        30.31R WCI -20
PHILLIPS       CLEAR    -10 -16  75 CALM      30.33S
ANTIGO         CLEAR     -4 -12  67 NW6       30.32R WCI -17
TOMAHAWK         N/A    -14 -19  78 CALM      30.34R
MERRILL        CLEAR     -7 -15  68 CALM      30.35R
$$

WIZ013-073-270500-
NORTHEAST WISCONSIN

CITY           SKY/WX    TMP DP  RH WIND       PRES   REMARKS
IRON MOUNTAIN  CLEAR     -6 -14  68 CALM      30.31S
MARINETTE      CLEAR     -4 N/A N/A CALM      30.38R
OCONTO         CLEAR     -8 -11  84 CALM      30.40R
$$

WIZ017-030-035>037-045-270500-
CENTRAL WISCONSIN

CITY           SKY/WX    TMP DP  RH WIND       PRES   REMARKS
MEDFORD        CLEAR     -5 -13  68 W3        30.34R
WAUSAU           N/A      1 -10  60 NW5       30.35R WCI  -9
MOSINEE        CLEAR      1  -9  60 NW7       30.37R WCI -11
MARSHFIELD     CLEAR      0 -11  59 W6        30.37R WCI -12
WISC RAPIDS    CLEAR      1 -11  57 NW7       30.42R WCI -12
STEVENS POINT  CLEAR      0 -10  62 W6        30.39R WCI -11
WAUPACA        CLEAR      6  -7  55 W7        30.41R WCI  -6
SHAWANO        CLEAR      6  -8  50 NW3       30.39R
CLINTONVILLE   CLEAR      3  -9  55 W7        30.39R WCI  -9
$$

WIZ038-039-048-051-270500-
FOX VALLEY

CITY           SKY/WX    TMP DP  RH WIND       PRES   REMARKS
NWS GREEN BAY  CLEAR      3  -5  69 W5        30.39R WCI  -6
APPLETON       CLEAR      1  -9  60 W10       30.38R WCI -14
OSHKOSH        CLEAR      5  -7  57 W8        30.39R WCI  -8
FOND DU LAC    CLEAR      5  -7  57 W10       30.40R WCI -10
$$

WIZ022-050-052-270500-
EAST CENTRAL WISCONSIN

CITY           SKY/WX    TMP DP  RH WIND       PRES   REMARKS
STURGEON BAY   CLEAR      1  -9  60 W5        30.39R WCI  -8
MANITOWOC      CLEAR     -1  -8  72 CALM      30.39S
SHEBOYGAN      CLEAR      0  -7  72 W6        30.39R WCI -12
$$

LMZ563-521-522-541>543-270500-
LAKESHORE

STATION/POSITION TIME  TEMP    WIND        PRES    VSBY  WAVE
                       AIR SEA DIR/SP/G                  HT/PER
                 (UTC) (F)     (DEG/KT/KT) (MB)    (MI)  (FT/S)
SHEBOYGAN LKSHOR 0400    7     250/  8/  9 1031.4R
KEWAUNEE LKSHORE 0400    3     300/  2/  4 1028.0R
TWO RIVERS CG    0400    0                 1032.1
NORTHPORT PIER   0400    3     240/  4/  6 1028.4S
SISTER BAY LKSHO 0400    0        CALM       N/A
CHAMBERS ISLAND  0400    3     230/  3/  6 1028.8S
MENOMINEE LKSHOR 0400    4     250/  7     1029.5R
$$


USA.gov is the U.S. government's official web portal to all federal, state and local government web resources and services.